Regional Weather Roundup
Issued by NWS

Home | Current Version | Previous Version | Text Only | Print | Product List | Glossary On
Versions: 1 2 3 4 5 6 7 8 9 10 11 12 13 14 15 16 17 18 19 20 21 22 23 24 25 26 27 28 29 30 31 32 33 34 35 36 37 38 39 40 41 42 43 44 45 46 47 48 49 50
000
ASUS46 KPQR 311710
RWROR

OREGON REGIONAL WEATHER ROUNDUP
NATIONAL WEATHER SERVICE PORTLAND OR
1000 AM PDT FRI JUL 31 2015

NOTE: "FAIR" INDICATES FEW OR NO CLOUDS BELOW 12,000 FEET WITH
NO SIGNIFICANT WEATHER AND/OR OBSTRUCTIONS TO VISIBILITY.

ORZ001>013-311800-
NORTHWEST OREGON


CITY           SKY/WX    TMP DP  RH WIND       PRES   REMARKS
ASTORIA        SUNNY     67  59  75 VRB3      30.09S
NEWPORT        SUNNY     63  54  72 NW6       30.08F HAZE
PORTLAND       MOSUNNY   79  52  38 NW9       30.05F
VANCOUVER WA   SUNNY     78  50  37 W8        30.05F
SCAPPOOSE      SUNNY     77  55  46 SE5       30.05F
HILLSBORO      SUNNY     80  46  30 CALM      30.05F
AURORA         SUNNY     81  48  31 NE6       30.06F
MCMINNVILLE    SUNNY     80  49  33 CALM      30.06S
SALEM          SUNNY     81  49  32 VRB5      30.04F
CORVALLIS      SUNNY     81  50  34 E7        30.07S
EUGENE         MOSUNNY   82  49  31 VRB5      30.05F
$$

ORZ021-028-311800-
SOUTHWEST OREGON


CITY           SKY/WX    TMP DP  RH WIND       PRES   REMARKS
NORTH BEND     SUNNY     64  57  77 NW5       30.04S
BROOKINGS      MOSUNNY   65  59  81 W3        30.02S
ROSEBURG       SUNNY     81  51  35 CALM      30.04F HAZE
SEXTON SUMMIT  HAZE      82  49  31 CALM      30.21S VSB 1
MEDFORD        SUNNY     81  47  30 CALM      30.07F
$$

ORZ014>016-041-311800-
COLUMBIA GORGE


CITY           SKY/WX    TMP DP  RH WIND       PRES   REMARKS
TROUTDALE      SUNNY     78  54  43 S3        30.04F
THE DALLES     SUNNY     81  48  31 VRB3      30.01F
$$

ORZ029>031-041-044-049-050-061>064-502-503-505>511-311800-
EASTERN OREGON


CITY           SKY/WX    TMP DP  RH WIND       PRES   REMARKS
REDMOND        SUNNY     81  37  20 CALM      30.17F
BEND           SUNNY     82  37  20 S3        30.20F
PRINEVILLE     SUNNY     82  36  18 SE5       30.18F
KLAMATH FALLS  SUNNY     81  45  28 N6        30.23F
LAKEVIEW       SUNNY     84  39  20 N10       30.26F
HERMISTON      SUNNY     83  42  23 W6        30.02F
PENDLETON      SUNNY     88  37  16 NW8       30.06F
JOHN DAY       SUNNY     82  35  18 NW3       30.22S
MEACHAM        SUNNY     85  40  20 CALM      30.21S
LA GRANDE      SUNNY     75  37  25 N5        30.18F
BAKER CITY     SUNNY     76  48  37 CALM      30.21F
BURNS          SUNNY     82  33  17 W3        30.25F
ROME             N/A     86  26  11 N6        30.22F
ONTARIO        SUNNY     78  47  33 SE3       30.16F
$$



USA.gov is the U.S. government's official web portal to all federal, state and local government web resources and services.